User: anonymous   Login
Location: Unspecified
(0.0000°N, 0.0000°E)
Time: 23:28:31
(UTC+00:00)
Language:

SENTINEL-1D - Orbit

View from above orbital plane
View from above orbital plane
View from above satellite
View from above satellite

Ground track
Ground track

The orbit is defined by the following mean orbital elements,

1 66315U          26145.46984997 +.00000000 +00000-0 +91933-4 0 00007
2 66315  98.1825 153.1497 0001341  88.8882 271.2471 14.59198849    09
Epoch (UTC): 25 May 2026 11:16:35
Eccentricity: 0.0001341
inclination: 98.1825°
perigee height: 695 km
apogee height: 697 km
right ascension of ascending node: 153.1497°
argument of perigee: 88.8882°
revolutions per day: 14.59198849
mean anomaly at epoch: 271.2471°

The dashed part of the orbit path shows where the satellite is in the earth's shadow,  

DLR